Weather in Kinel-Cherkassy

Russia / Samara Oblast     53°27′50″N   51°31′09″E
temp.,
°C
wind,
m/s
gust,
m/s
humid.,
%
clouds,
%
prec.,
mm/h
press.,
hPa
HPBL,
m
28 february, sun
sun2801:00−9nnw5993100 0.4 998227
04:00−12nnw51093100 0.6 1000285
07:00−13nw5109397 0.1 1002334
10:00−13nw6109299 0.3 1004385
13:00−11nw6991100 0.1 1006487
16:00−11nw6990100 0.1 1008555
19:00−13nw4994100 0.2 1011342
22:00−14nw489496 0.3 1013251
1 march, mon
mon101:00−16nw489483 0.1 1015190
04:00−19nw469582 0.1 1017118
07:00−20nw349681 0.0 101875
10:00−18nnw469240 0.0 1021234
13:00−16nw359110 0.0 1021288
16:00−15nw369122 0.0 1022334
19:00−20wnw229812 0.0 102220
22:00−21wsw22996 0.0 102220
2 march, tue
tue201:00−21sw33972 0.0 102027
04:00−19ssw379930 0.0 1017133
07:00−16ssw51196100 0.0 1014275
10:00−12ssw71294100 0.3 1011426
13:00−8ssw81294100 0.9 1008630
16:00−5ssw81395100 1.9 1004732
19:00−3ssw71296100 1.3 1001629
22:00−2ssw61196100 2.3 1000480
3 march, wed
wed301:00−2wsw379799 0.6 999241
04:00−5w479796 0.7 999155
07:00−3w479599 0.1 999302
10:00−2wnw479399 0.2 1001554
13:00−1nw5790100 0.1 1002597
16:00−2nw4792100 0.1 1003574
19:00−3nw4993100 0.3 1004300
22:00−5wnw389499 0.3 1007187
4 march, thu
thu401:00−6nw4109493 0.0 1007342
04:00−9nw4109487 0.1 1009238
07:00−12nw479579 0.0 1011108
10:00−9wnw489372 0.1 1013276
13:00−7wsw479279 0.0 1014432
16:00−6sw6109289 0.1 1013541
19:00−7sw71493100 0.1 1011605
22:00−4sw91591100 0.2 1010779